Stations météo

Publicité
Chambery/Aix-Les-Bains, France (7491): Température de l'air & dewpoint: 11.12.2017 03:00:00 - 17.12.2017 03:00:00 (CET)Chambery/Aix-Les-Bains, France (7491): Température de l'air 5cm: 11.12.2017 03:00:00 - 17.12.2017 03:00:00 (CET)Chambery/Aix-Les-Bains, France (7491): Température de l'air -20cm & Température de l'air -100cm: 11.12.2017 03:00:00 - 17.12.2017 03:00:00 (CET)Chambery/Aix-Les-Bains, France (7491): Vitesse du vent & gusts: 11.12.2017 03:00:00 - 17.12.2017 03:00:00 (CET)Chambery/Aix-Les-Bains, France (7491): Direction du vent: 11.12.2017 03:00:00 - 17.12.2017 03:00:00 (CET)Chambery/Aix-Les-Bains, France (7491): reduced air pressure: 11.12.2017 03:00:00 - 17.12.2017 03:00:00 (CET)Chambery/Aix-Les-Bains, France (7491): visibility: 11.12.2017 03:00:00 - 17.12.2017 03:00:00 (CET)Chambery/Aix-Les-Bains, France (7491): Ensoleillement: 11.12.2017 03:00:00 - 17.12.2017 03:00:00 (CET)Chambery/Aix-Les-Bains, France (7491): Quantités de précipitations: 11.12.2017 03:00:00 - 17.12.2017 03:00:00 (CET)
Date & Time tt [°C] td [°C] tt 5cm [°C] tt -20cm [°C] tt -100cm [°C] ff [km/h] ff [knt] fx [km/h] fx [knt] dd ppp [hPa] vv [km] sd [min] rr [mm]
17.12.2017 03:00:00 3,3 -1,1 1,1 6,0 8,3 17 9 28 15 N 1024,5 47 0 0,0
17.12.2017 02:00:00 2,3 1,6 1,5 6,0 8,3 5 3 9 5 - 1024,0 10 0 0,0
17.12.2017 01:00:00 2,2 1,6 1,5 6,0 8,3 0 0 6 3 N 1024,1 6 0 0,0
17.12.2017 00:00:00 2,1 1,5 0,9 6,0 8,3 3 1 4 2 SSW 1023,7 3,5 0 0,0
16.12.2017 23:00:00 1,9 1,3 0,8 6,0 8,3 0 0 4 2 N 1023,4 4,2 0 0,0
16.12.2017 22:00:00 1,9 1,3 0,6 6,1 8,3 0 0 7 4 N 1023,0 9 0 0,0
16.12.2017 21:00:00 1,4 0,8 0,1 6,1 8,3 7 4 8 5 S 1022,6 7 0 0,4
16.12.2017 20:00:00 1,4 0,8 -1,6 6,1 8,3 2 1 7 4 NW 1021,8 13 0 0,0
16.12.2017 19:00:00 0,6 -0,4 -2,4 6,1 8,3 4 2 7 4 S 1020,9 11 0 0,0
16.12.2017 18:00:00 1,2 0,2 -1,8 6,1 8,3 3 2 8 4 SE 1020,0 10 0 0,0
16.12.2017 17:00:00 2,4 0,6 -1,2 6,1 8,3 4 2 5 3 W 1019,0 13 0 0,0
16.12.2017 16:00:00 4,1 1,0 2,2 6,1 8,3 3 1 9 5 NW 1018,2 60 7 0,0
16.12.2017 15:00:00 4,6 1,4 5,1 6,1 8,4 6 4 14 8 NNE 1017,4 20 6 0,0
16.12.2017 14:00:00 4,8 0,9 5,5 6,1 8,4 2 1 7 4 NNE 1017,0 60 0 0,0
16.12.2017 13:00:00 4,9 1,0 6,6 6,0 8,3 4 2 8 4 - 1016,7 10 25 0,0
16.12.2017 12:00:00 4,5 1,3 5,2 6,0 8,3 0 0 5 3 N 1016,3 19 6 0,0
16.12.2017 11:00:00 3,4 2,1 2,8 6,1 8,4 3 1 11 6 SSW 1015,8 16 0 0,0
16.12.2017 10:00:00 2,5 1,6 1,9 6,1 8,3 0 0 5 3 N 1014,7 19 0 0,2
16.12.2017 09:00:00 2,1 1,2 1,3 6,1 8,4 3 1 5 3 E 1013,5 15 0 0,0
16.12.2017 08:00:00 1,9 0,9 1,3 6,1 8,3 5 3 10 5 SSE 1012,6 40 0 0,2
16.12.2017 07:00:00 2,1 1,1 1,6 6,1 8,3 8 4 12 6 SSW 1011,5 10 0 0,2
16.12.2017 06:00:00 2,2 1,2 1,7 6,1 8,3 9 5 15 8 S 1010,3 10 0 0,6
16.12.2017 05:00:00 2,2 1,0 1,7 6,2 8,4 0 0 11 6 N 1009,4 10 0 0,8
16.12.2017 04:00:00 2,7 1,2 1,8 6,2 8,3 7 4 21 12 ESE 1008,7 9 0 0,4
16.12.2017 03:00:00 3,1 1,1 2,2 6,2 8,3 14 8 29 15 SE 1007,9 9 0 1,8
16.12.2017 02:00:00 3,8 1,5 2,7 6,2 8,4 10 5 24 13 SSE 1006,6 9 0 0,2
16.12.2017 01:00:00 3,8 1,7 3,0 6,2 8,4 21 11 34 18 SSE 1006,0 9 0 0,8
16.12.2017 00:00:00 5,0 1,3 3,1 6,2 8,3 24 13 56 30 S 1005,3 54 0 0,0
15.12.2017 23:00:00 4,0 2,3 2,7 6,2 8,3 34 18 51 28 SSE 1004,9 10 0 0,8
15.12.2017 22:00:00 4,6 2,0 3,2 6,2 8,4 15 8 26 14 SSE 1004,7 20 0 0,4
15.12.2017 21:00:00 4,6 2,1 3,4 6,2 8,3 21 12 32 17 S 1004,3 11 0 0,2
15.12.2017 20:00:00 4,8 2,0 3,5 6,2 8,4 13 7 29 16 SSW 1003,9 10 0 0,0
15.12.2017 19:00:00 5,2 1,7 4,1 6,2 8,4 16 9 25 14 SW 1003,4 20 0 0,0
15.12.2017 18:00:00 5,2 2,4 3,7 6,2 8,4 15 8 21 12 SSW 1003,5 19 0 0,0
15.12.2017 17:00:00 5,2 2,0 3,6 6,2 8,3 8 5 24 13 SSW 1004,0 19 0 0,0
15.12.2017 16:00:00 6,0 2,1 5,0 6,2 8,3 12 6 19 10 SSW 1004,0 20 9 0,0
15.12.2017 15:00:00 6,4 2,5 6,4 6,1 8,4 12 7 18 10 SSW 1004,2 19 13 0,0
15.12.2017 14:00:00 7,0 2,9 8,0 6,1 8,4 9 5 19 10 SSW 1004,5 19 16 0,0
15.12.2017 13:00:00 6,6 3,0 6,4 6,1 8,4 14 7 23 13 SSW 1005,1 18 52 0,0
15.12.2017 12:00:00 6,4 3,7 4,7 6,1 8,4 14 8 26 14 SSW 1006,0 19 16 0,0
15.12.2017 11:00:00 4,6 2,5 3,8 6,1 8,4 16 9 33 18 S 1007,1 19 1 0,0
15.12.2017 10:00:00 4,4 2,3 3,0 6,2 8,4 17 9 29 16 SSW 1006,3 20 11 0,0
15.12.2017 09:00:00 3,7 1,9 2,2 6,2 8,4 13 7 20 11 S 1005,9 59 0 0,0
15.12.2017 08:00:00 3,6 1,8 2,1 6,2 8,4 11 6 22 12 SSW 1005,6 10 0 0,0
15.12.2017 07:00:00 3,6 1,6 2,3 6,2 8,4 11 6 23 12 SSW 1005,7 60 0 0,0
15.12.2017 06:00:00 3,5 2,0 2,2 6,2 8,4 3 2 14 7 WSW 1005,9 38 0 0,0
15.12.2017 05:00:00 3,0 1,7 2,1 6,2 8,4 3 2 21 12 NNE 1006,4 51 0 0,6
15.12.2017 04:00:00 3,2 1,7 2,1 6,2 8,4 11 6 23 12 S 1006,8 8 0 2,5
15.12.2017 03:00:00 4,2 1,9 3,3 6,2 8,4 8 4 61 33 NNE 1005,6 10 0 3,2
15.12.2017 02:00:00 6,8 0,9 4,3 6,2 8,4 35 19 94 51 WNW 1004,3 3,9 0 2,4
15.12.2017 01:00:00 12,1 2,3 11,0 6,1 8,4 44 24 84 45 SSE 1000,7 10 0 0,0
15.12.2017 00:00:00 12,4 1,1 10,9 6,1 8,4 41 22 85 46 SSE 1001,4 10 0 0,0
14.12.2017 23:00:00 12,2 1,2 10,8 6,1 8,4 29 16 67 36 SSE 1001,8 10 0 0,0
14.12.2017 22:00:00 12,4 1,1 10,9 6,0 8,4 44 24 83 45 SSE 1002,3 60 0 0,0
14.12.2017 21:00:00 12,4 1,4 10,7 6,0 8,4 40 22 76 41 S 1003,3 60 0 0,0
14.12.2017 20:00:00 12,2 1,8 10,2 6,0 8,4 39 21 77 42 S 1003,8 60 0 0,0
14.12.2017 19:00:00 11,9 1,5 8,7 5,9 8,4 31 17 56 30 SSE 1004,5 60 0 0,0
14.12.2017 18:00:00 10,3 3,1 8,4 5,9 8,4 16 9 26 14 SSW 1004,8 60 0 0,0
14.12.2017 17:00:00 10,0 3,5 7,8 5,9 8,4 18 10 33 18 S 1005,5 60 0 0,0
14.12.2017 16:00:00 9,0 4,4 7,6 5,9 8,4 13 7 24 13 S 1006,5 10 0 0,0
14.12.2017 15:00:00 9,5 4,5 7,6 5,8 8,4 17 9 29 16 S 1006,9 20 0 0,2
14.12.2017 14:00:00 9,4 4,2 8,8 5,8 8,4 18 10 33 18 S 1008,2 10 0 0,0
14.12.2017 13:00:00 10,6 3,8 8,7 5,7 8,4 22 12 43 23 SSE 1009,1 20 0 0,0
14.12.2017 12:00:00 9,0 4,6 9,1 5,7 8,4 17 9 29 16 SSW 1010,6 20 19 0,0
14.12.2017 11:00:00 8,4 4,8 7,1 5,7 8,4 18 10 28 15 S 1011,0 10 20 0,0
14.12.2017 10:00:00 7,0 4,0 5,9 5,7 8,4 22 12 34 19 S 1011,5 20 8 0,0
14.12.2017 09:00:00 6,7 3,8 5,2 5,7 8,4 21 11 37 20 S 1011,4 10 0 0,0
14.12.2017 08:00:00 6,8 3,8 5,8 5,6 8,4 22 12 29 16 S 1011,5 10 0 0,0
14.12.2017 07:00:00 6,8 3,6 5,5 5,6 8,4 15 8 35 19 SSW 1011,5 60 0 0,0
14.12.2017 06:00:00 6,8 3,9 5,4 5,6 8,4 31 17 43 23 S 1011,5 10 0 0,0
14.12.2017 05:00:00 6,6 3,9 4,9 5,6 8,4 26 14 41 22 S 1011,1 10 0 0,0
14.12.2017 04:00:00 5,9 3,4 4,4 5,6 8,4 26 14 47 26 SSW 1011,4 20 0 0,0
14.12.2017 03:00:00 5,5 3,2 4,1 5,6 8,5 26 14 45 24 SSW 1011,9 10 0 0,2
14.12.2017 02:00:00 5,1 2,8 3,9 5,6 8,4 29 15 49 26 SSW 1011,5 51 0 0,0
14.12.2017 01:00:00 4,9 2,4 3,8 5,6 8,4 33 18 57 31 SSW 1012,0 60 0 0,0
14.12.2017 00:00:00 4,5 2,4 3,5 5,6 8,5 29 16 61 33 SSW 1012,6 10 0 0,0
13.12.2017 23:00:00 4,0 2,0 2,8 5,6 8,4 31 17 56 30 SSW 1012,9 60 0 0,2
13.12.2017 22:00:00 3,6 2,0 2,4 5,6 8,5 28 15 55 30 SSW 1013,3 7 0 1,5
13.12.2017 21:00:00 2,9 1,6 2,3 5,7 8,5 32 17 52 28 SSW 1014,1 5 0 2,6
13.12.2017 20:00:00 2,9 1,4 2,2 5,7 8,5 26 14 53 29 SSW 1014,8 8 0 1,4
13.12.2017 19:00:00 3,0 1,0 1,9 5,7 8,5 27 14 45 25 SSW 1016,4 9 0 0,2
13.12.2017 18:00:00 2,7 0,4 1,0 5,7 8,5 26 14 45 24 SSW 1017,3 10 0 0,4
13.12.2017 17:00:00 2,2 0,3 0,9 5,7 8,5 24 13 40 22 SW 1018,1 10 0 1,0
13.12.2017 16:00:00 4,0 -2,0 3,2 5,7 8,5 22 12 34 18 S 1018,5 10 0 0,0
13.12.2017 15:00:00 4,3 -1,9 4,0 5,7 8,5 22 12 42 23 S 1018,1 10 0 0,0
13.12.2017 14:00:00 4,6 -2,1 4,8 5,7 8,5 21 12 49 26 SSW 1018,3 20 20 0,0
13.12.2017 13:00:00 4,1 -2,8 4,2 5,7 8,5 33 18 49 26 S 1019,3 19 25 0,0
13.12.2017 12:00:00 3,7 -2,1 3,3 5,7 8,5 19 11 48 26 SSW 1020,6 45 27 0,0
13.12.2017 11:00:00 2,8 -1,6 1,2 5,8 8,5 32 18 46 25 S 1021,8 20 60 0,0
13.12.2017 10:00:00 2,0 -2,2 -0,6 5,8 8,5 23 12 37 20 S 1022,4 18 60 0,0
13.12.2017 09:00:00 0,5 -1,3 -1,3 5,8 8,5 14 8 31 17 S 1022,5 13 19 0,0
13.12.2017 08:00:00 1,1 -1,3 -1,4 5,8 8,5 26 14 34 18 S 1022,6 18 0 0,0
13.12.2017 07:00:00 0,6 -1,0 -2,5 5,8 8,5 16 9 30 16 S 1022,9 14 0 0,0
13.12.2017 06:00:00 -0,5 -1,2 -2,6 5,9 8,5 9 5 19 10 SSW 1023,2 7 0 0,0
13.12.2017 05:00:00 0,4 -0,3 -2,9 5,9 8,5 13 7 18 10 SSW 1023,2 9 0 0,0
13.12.2017 04:00:00 0,1 -0,5 -2,7 5,9 8,5 4 2 9 5 S 1023,6 4,0 0 0,0
13.12.2017 03:00:00 1,2 0,5 -0,3 5,9 8,5 3 2 6 4 SSE 1023,4 6 0 0,0
13.12.2017 02:00:00 1,3 0,4 0,1 5,9 8,5 4 2 6 3 SSE 1023,3 4,7 0 0,0
13.12.2017 01:00:00 1,1 0,2 -1,0 6,0 8,5 2 1 7 4 W 1023,0 17 0 0,0
13.12.2017 00:00:00 1,5 0,3 -0,7 6,0 8,5 0 0 5 3 N 1022,4 3,4 0 0,0
12.12.2017 23:00:00 2,4 1,4 1,5 6,0 8,5 2 1 6 3 NE 1022,3 8 0 0,0
12.12.2017 22:00:00 2,6 1,7 1,5 6,0 8,5 3 2 8 4 NNE 1022,1 7 0 0,0
12.12.2017 21:00:00 2,4 1,7 0,6 6,0 8,5 0 0 4 2 N 1021,7 11 0 0,0
12.12.2017 20:00:00 2,4 1,7 0,5 6,0 8,5 0 0 5 3 N 1021,0 10 0 0,0
12.12.2017 19:00:00 2,1 1,5 -0,1 6,0 8,5 5 3 7 4 S 1020,5 10 0 0,0
12.12.2017 18:00:00 2,4 1,4 -0,4 6,0 8,5 0 0 5 3 N 1019,3 9 0 0,0
12.12.2017 17:00:00 3,6 1,6 0,3 6,0 8,6 3 2 9 5 W 1018,5 19 0 0,0
12.12.2017 16:00:00 4,2 2,1 3,4 6,0 8,5 2 1 10 5 NNW 1018,0 60 0 0,0
12.12.2017 15:00:00 4,1 2,3 4,3 6,0 8,6 5 3 10 5 NE 1016,9 17 0 0,2
12.12.2017 14:00:00 3,8 2,0 4,4 6,0 8,6 2 1 7 4 NE 1016,4 19 4 0,0
12.12.2017 13:00:00 3,8 2,2 4,7 6,0 8,6 5 3 8 4 SE 1015,7 20 2 0,0
12.12.2017 12:00:00 3,2 1,7 2,9 6,0 8,6 4 2 14 8 N 1015,6 13 0 1,4
12.12.2017 11:00:00 3,5 2,0 3,0 6,0 8,6 8 4 26 14 NNW 1015,4 19 0 0,0
12.12.2017 10:00:00 3,8 2,0 3,4 6,0 8,6 20 11 33 18 N 1014,0 20 14 0,4
12.12.2017 09:00:00 3,8 2,2 3,4 6,0 8,6 10 5 19 10 ENE 1012,6 18 0 1,0
12.12.2017 08:00:00 4,0 3,3 3,4 6,0 8,6 5 3 10 5 SSW 1011,1 10 0 0,0
12.12.2017 07:00:00 4,0 3,1 3,3 6,0 8,6 0 0 3 2 N 1009,4 37 0 0,2
12.12.2017 06:00:00 4,1 2,8 3,4 6,0 8,6 3 2 10 5 SE 1008,2 38 0 0,0
12.12.2017 05:00:00 4,2 2,4 3,4 6,0 8,6 7 4 26 14 ENE 1006,9 19 0 0,4
12.12.2017 04:00:00 4,8 2,5 3,9 6,0 8,6 18 10 28 15 NNE 1005,9 12 0 1,4
12.12.2017 03:00:00 5,4 3,9 4,4 6,0 8,7 4 2 17 9 E 1003,9 12 0 1,0
12.12.2017 02:00:00 5,1 3,6 4,4 6,0 8,7 13 7 36 19 S 1001,9 10 0 0,4
12.12.2017 01:00:00 6,0 3,3 4,9 6,0 8,7 24 13 41 22 S 1000,2 60 0 0,0
12.12.2017 00:00:00 6,1 3,4 4,9 6,0 8,7 23 13 39 21 SSW 999,2 58 0 0,2
11.12.2017 23:00:00 6,4 3,7 4,9 5,9 8,7 18 10 37 20 SSW 998,1 20 0 0,2
11.12.2017 22:00:00 5,8 3,8 4,6 6,0 8,7 21 12 35 19 SW 997,1 48 0 0,4
11.12.2017 21:00:00 5,7 3,7 4,7 5,9 8,7 21 11 34 18 SW 996,0 10 0 1,2
11.12.2017 20:00:00 5,6 4,2 4,9 5,9 8,7 15 8 24 13 SSW 995,3 6 0 3,4
11.12.2017 19:00:00 5,8 4,0 4,9 5,9 8,7 21 11 29 15 S 993,6 6 0 3,8
11.12.2017 18:00:00 5,9 4,7 5,4 5,8 8,7 7 4 11 6 SSE 992,2 3,1 0 4,1
11.12.2017 17:00:00 6,6 4,8 5,5 5,8 8,7 4 2 25 13 N 990,8 5 0 3,8
11.12.2017 16:00:00 7,2 5,2 6,4 5,7 8,7 22 12 37 20 NNE 989,0 7 0 3,0
11.12.2017 15:00:00 8,4 6,4 7,7 5,7 8,8 11 6 16 9 E 986,3 4,8 0 4,7
11.12.2017 14:00:00 10,0 8,4 8,7 5,6 8,7 13 7 23 12 SSW 984,9 9 0 1,4
11.12.2017 13:00:00 9,7 7,6 8,8 5,5 8,8 13 7 25 14 S 984,2 9 0 1,0
11.12.2017 12:00:00 10,6 7,1 8,9 5,5 8,8 14 8 36 19 SSW 984,0 58 0 0,8
11.12.2017 11:00:00 11,0 6,5 8,8 5,4 8,8 18 10 39 21 SW 984,2 10 0 0,4
11.12.2017 10:00:00 10,9 5,4 8,9 5,4 8,8 21 11 40 22 SSW 983,3 10 0 0,0
11.12.2017 09:00:00 10,2 6,0 7,5 5,4 8,8 23 12 41 22 SSW 982,5 60 0 0,0
11.12.2017 08:00:00 9,9 5,5 7,3 5,3 8,8 25 14 39 21 SW 983,2 60 0 0,0
11.12.2017 07:00:00 8,9 5,6 7,2 5,2 8,8 18 10 37 20 SSW 984,4 10 0 0,2
11.12.2017 06:00:00 9,6 5,4 7,3 5,2 8,8 27 15 49 27 S 985,0 59 0 0,0
11.12.2017 05:00:00 8,6 5,3 7,3 5,1 8,8 22 12 46 25 SSW 986,2 10 0 0,0
11.12.2017 04:00:00 9,4 5,2 6,9 5,1 8,9 28 15 51 28 SSW 987,5 10 0 0,0
11.12.2017 03:00:00 8,7 4,7 6,9 5,0 8,9 30 16 59 32 SW 988,1 20 0 0,2

tt = Température de l'air
td = dewpoint
tt 5cm = Température de l'air 5cm
tt -20cm = Température de l'air -20cm
tt -100cm = Température de l'air -100cm
ff = Vitesse du vent
fx = gusts
dd = Direction du vent
ppp = reduced air pressure
vv = visibility
sd = Ensoleillement
rr = Quantités de précipitations

stations d'obs. à proximité